星链-30596 (STARLINK-30596 )

导读 | 豆包AI

STARLINK-30596是美国太空探索技术公司Starlink星链互联网卫星星座的一员,于2023年10月21日发射入轨,星链项目旨在为全球提供高速低延迟互联网覆盖,该卫星是星链大规模组网过程中的组成部分,运行在近地轨道,服务于项目全球互联的部署目标。

Basic Information
目录编号:
58110
目录名称:
STARLINK-30596
国际标识:
2023-161P
轨道中心:
EARTH
卫星名称:
星链-30596
卫星全名:
星链-30596 (STARLINK-30596 )
卫星状态:
在轨 (已飞行922 天)
发射日期:
2023-10-21 UTC
国别 :
美国 (US)
星等 :
--
Orbit Information
数据来源 国际轨道数据
星历时间: 2026-04-30T05:16:46+0800
22小时前
查看轨道信息
半长轴: 6853.359km
偏心率: 0.0000996
轨道倾角: 53.161°
近地点辐角 91.708°
升交点赤经 287.477°
平近点角 268.403°
近地点: 474.539km
远地点: 475.905km
周期: 94.105分钟
每日圈数: 15.301977
Detailed Information
固有亮度:
5
最大亮度:
0.3
卫星平台:
Starlink v2.0 mini
覆盖范围:
全球
运营商:
太空探索技术公司
运营商所在国:
美国
制造商(研发单位):
太空探索技术公司
制造商所在国:
美国
使用方式:
暂无
Satellite Introduction
星链(Starlink)计划是由太空探索技术公司(SpaceX)提出的一个巨型低轨卫星互联网星座项目,计划在2019年至2024年间在太空搭建由约1.2万颗卫星组成的“星链”网络,其中1584颗将部署在地球上空550千米处的近地轨道,并从2020年开始工作。该卫星仍在工作。
2D Orbit Map
3D Orbit Map
Orbit Altitude Analysis Chart
Orbit Inclination Analysis Chart
Orbit Comprehensive Analysis Chart
View Comprehensive Chart